Regional Weather Roundup
Issued by NWS Northern Indiana

Home | Current Version | Previous Version | Text Only | Print | Product List | Glossary Off
Versions: 1 2 3 4 5 6 7 8 9 10 11 12 13 14 15 16 17 18 19 20 21 22 23 24 25 26 27 28 29 30 31 32 33 34 35 36 37 38 39 40 41 42 43 44 45 46 47 48 49 50

000
ASUS43 KIWX 290510
RWRIWX

KIWX WEATHER ROUNDUP
NATIONAL WEATHER SERVICE NORTHERN INDIANA
100 AM EDT SAT APR 29 2017

NOTE: "FAIR" INDICATES FEW OR NO CLOUDS BELOW 12,000 FEET WITH NO
SIGNIFICANT WEATHER AND/OR OBSTRUCTIONS TO VISIBILITY.

* THESE STATIONS ARE NOT UNDER NWS QUALITY CONTROL. THEY ALSO MAY NOT
  REPORT WEATHER SUCH AS PRECIPITATION OR FOG.

INZ001>027-290600-
NORTHERN INDIANA

CITY           SKY/WX    TMP DP  RH WIND       PRES   REMARKS
GARY*          CLOUDY    48  41  75 N9        30.02R
VALPARAISO     CLOUDY    55  51  86 N9        29.98R
MICHIGAN CITY* CLOUDY    48  46  93 N5        30.00R
LAPORTE*       CLOUDY    54  49  85 N6        29.99R
KNOX*          CLOUDY    52  37  58 N5        29.96S
SOUTH BEND     CLOUDY    53  48  83 N8        29.98R
GOSHEN         CLOUDY    54  48  80 E6        29.94F
MONTICELLO*    DRIZZLE   53  52  95 E3        29.92S
LOGANSPORT*    CLOUDY    52  52 100 NE5       29.94R FOG
ROCHESTER*     CLOUDY    55  52  88 CALM      29.94F
WARSAW*        LGT RAIN  52  50  93 E3        29.94F
ANGOLA*        CLOUDY    54  43  66 CALM      29.97F
FORT WAYNE     CLOUDY    54  51  90 N9        29.94F
HUNTINGTON*    CLOUDY    52  51  95 NE5       29.93F FOG
PERU/GRISSOM   CLOUDY    54  54 100 NE6       29.93R FOG
MARION*        CLOUDY    54  54 100 NE7       29.92  FOG

$$
INZ028>050-290600-
CENTRAL INDIANA

CITY           SKY/WX    TMP DP  RH WIND       PRES   REMARKS
LAFAYETTE      CLOUDY    54  54 100 NE5       29.91S FOG
KOKOMO*        CLOUDY    54  53  97 N7        29.95R FOG
MUNCIE*        CLOUDY    58  55  90 SE6       29.90S
INDIANAPOLIS   CLOUDY    57  56  96 SE7       29.89F THUNDER

$$
MIZ043>046-050>051-056>058-064>065-071>073-077>080-290600-
SOUTHWEST LOWER MICHIGAN

CITY           SKY/WX    TMP DP  RH WIND       PRES   REMARKS
BATTLE CREEK   CLOUDY    53  47  79 CALM      30.01R
BENTON HARBOR  CLOUDY    50  44  80 N5        30.00R
COLDWATER*     CLOUDY    54  48  80 SE6       29.98R
HILLSDALE*     LGT RAIN  52  46  82 CALM      29.98S
HOLLAND        CLOUDY    52  37  56 NE10G16   30.02R
GRAND RAPIDS   CLOUDY    53  43  68 N10       30.00R
KALAMAZOO      CLOUDY    53  45  74 W3        30.00R
STURGIS*       CLOUDY    54  48  81 SE5       29.96S
THREE RIVERS*  CLOUDY    53  47  82 CALM      29.98R

$$
OHZ001>008-015>018-024>025-290600-
NORTHWEST OHIO

CITY           SKY/WX    TMP DP  RH WIND       PRES   REMARKS
WAUSEON*       DRIZZLE   54  52  94 N6        29.97F
DEFIANCE       LGT RAIN  52  50  93 NE6       29.97S FOG
FINDLAY        CLOUDY    58  53  84 NE3       29.94R
TOLEDO EXPRESS CLOUDY    53  53 100 CALM      29.97S
TOLEDO METCALF LGT RAIN  56  52  86 NE3       29.99R FOG
LIMA           CLOUDY    57  55  93 E3        29.92F

$$
AND FOR LAKE MICHIGAN COASTAL AND OPEN LAKE BUOY OBSERVATIONS

STATION/POSITION TEMP    WIND        PRES    VSBY  WAVE
                 AIR SEA DIR/SP/G                  HT/PER
                 (F)     (DEG/KT/KT) (MB)    (MI)  (FT/S)
CALUMET HARBOR    46     340/ 13/ 17 1016.1R
MICHIGAN CITY     46      30/ 13/ 15   N/A
BURNS HARBOR      46      40/ 11/ 13 1015.9R
SOUTH LAKE BUOY   43 41   20/ 16/ 19 1016.3          1/ 3
4 MI NW BRIDGMAN  48 48   50/ 12/ 16 1016.5          2/ 3
MICHIGAN CITY     45 47                N/A           2/ 3

$$
&&




USA.gov is the U.S. government's official web portal to all federal, state and local government web resources and services.